[[{"header":{"parameterUnit":"m.s-1","parameterCategory":1,"la1":30.2991,"la2":30.254,"lo1":-89.0895,"lo2":-89.0444,"dy":0.0017,"dx":0.0017,"nx":28,"ny":28,"refTime":"2025-03-22T09:00:00:Z","depth":0,"parameterNumber":2,"parameterNumberName":"U-component_of_WINDS"},"data":[0,0,0,0,0,0,0,0,0,0,0,0,0,0,0,0,0,0,0,0,0,0,0,0,0,0,0,0,0,0,0,0,0,0,0,0,0,0,0,0,0,0,0,0,0,0,0,0,0,0,0,0,0,0,0,0,0,0,1.0247,1.0247,0,1.0297,1.0298,1.0298,1.0303,1.0302,1.0302,1.0301,1.0354,1.0356,1.0358,0,0,0,0,0,0,0,0,0,0,0,0,0,1.0155,1.0157,1.0246,1.0247,1.0248,1.0297,1.0298,1.0298,1.0303,1.0302,1.0301,1.0301,1.0353,1.0356,1.0358,0,0,0,0,0,0,0,0,0,0,0,0,0,1.0199,1.0157,1.0246,1.0256,1.0257,1.0297,1.0298,1.0298,1.0303,1.0302,1.0301,1.0301,1.0353,1.0355,1.0358,1.0392,0,0,1.0367,1.0368,0,0,0,0,0,0,0,0,1.0197,1.0203,1.0254,1.0255,1.0257,1.0293,1.0285,1.033,1.0303,1.0286,1.0301,1.03,1.0334,1.0339,1.035,1.0394,1.0397,1.0367,1.0369,1.037,1.0371,0,0,0,0,0,0,0,1.0194,1.02,1.0266,1.0255,1.0256,1.0258,1.0263,1.0293,1.0314,1.0287,1.0288,1.0293,1.0335,1.0347,1.0351,1.0397,1.0367,1.037,1.0371,1.0373,1.0473,1.0474,0,0,0,0,0,0,1.0189,1.0198,1.0265,1.0268,1.0224,1.026,1.0266,1.0282,1.0314,1.0318,1.0294,1.0293,1.0343,1.0348,1.0353,1.0395,1.037,1.0373,1.0374,1.0472,1.0473,1.0474,0,0,0,0,0,0,1.0187,1.0195,1.0263,1.0233,1.0242,1.0263,1.028,1.0283,1.0296,1.0319,1.0323,1.0303,1.0342,1.0349,1.0382,1.0397,1.0374,1.0377,1.0471,1.0472,1.0473,1.0479,0,0,0,0,0,0,1.0184,1.0194,1.0207,1.0233,1.0243,1.0291,1.0281,1.0285,1.03,1.03,1.0328,1.0332,1.0342,1.0378,1.0385,1.04,1.0379,1.0469,1.0471,1.0473,1.0477,1.048,1.0482,0,0,0,0,0,1.0181,1.0206,1.0207,1.0215,1.026,1.0292,1.0297,1.0309,1.0301,1.0315,1.033,1.0331,1.0394,1.0381,1.0389,1.0406,1.0469,1.0471,1.0473,1.0476,1.048,1.0482,0,0,0,0,0,0,1.0181,1.021,1.0211,1.0246,1.0266,1.0292,1.0309,1.0312,1.0335,1.0334,1.0347,1.0353,1.0386,1.0399,1.0384,1.044,1.0431,1.0434,1.043,1.0434,1.0436,1.0433,1.0381,0,0,0,0,0,1.0185,1.0208,1.0232,1.0261,1.0271,1.0288,1.0303,1.0309,1.0331,1.034,1.0357,1.0378,1.0403,1.0419,1.0443,1.0479,1.0486,1.0494,1.0497,1.0499,1.0502,1.0523,1.0527,1.0481,1.0481,1.0481,0,0,1.0194,1.0212,1.0226,1.0261,1.0278,1.0302,1.0295,1.0321,1.0339,1.0344,1.0376,1.039,1.0414,1.0449,1.0465,1.0461,1.0516,1.0502,1.0503,1.0505,1.0525,1.053,1.0533,1.0482,1.0482,1.0482,0,0,1.0222,1.0238,1.0264,1.028,1.0305,1.0317,1.0323,1.0349,1.0358,1.039,1.0394,1.0416,1.0458,1.0476,1.049,1.0525,1.0527,1.0533,1.0547,1.0566,1.057,1.0573,1.0586,1.059,1.0536,1.0536,1.0536,0,1.023,1.0266,1.0277,1.0302,1.0318,1.0323,1.0349,1.0365,1.0396,1.0407,1.0402,1.0455,1.0472,1.0511,1.0519,1.0531,1.0539,1.053,1.0568,1.0572,1.0575,1.0587,1.0592,1.0537,1.0536,1.0536,1.0536,0,1.0274,1.0299,1.0317,1.0347,1.0364,1.039,1.0405,1.0422,1.0427,1.0439,1.0473,1.0493,1.0522,1.0531,1.0537,1.0572,1.0568,1.0566,1.0556,1.058,1.0592,1.0596,1.0537,1.0537,1.0537,1.0537,0,0,1.0304,1.034,1.0346,1.036,1.0388,1.0408,1.0434,1.0461,1.0475,1.0497,1.0519,1.0555,1.0553,1.0569,1.0577,1.0594,1.0621,1.0589,1.059,1.0595,1.0661,1.0662,1.0668,1.0622,1.0623,1.0624,1.0659,0,1.0335,1.0382,1.0392,1.0432,1.0456,1.0461,1.0484,1.0504,1.0516,1.0538,1.0551,1.0576,1.0571,1.0581,1.0599,1.0614,1.0634,1.0612,1.0644,1.0645,1.0638,1.0674,1.0676,1.0707,1.0663,1.0664,1.0665,0,1.0378,1.04,1.0443,1.0468,1.0478,1.0498,1.0524,1.0545,1.0568,1.0576,1.0594,1.06,1.0628,1.0617,1.0656,1.064,1.0654,1.0664,1.0665,1.0669,1.0656,1.0679,1.0718,1.0722,1.0672,1.0671,1.0671,0,1.0396,1.0436,1.0467,1.0479,1.0509,1.0523,1.0536,1.0558,1.0574,1.0597,1.0607,1.0633,1.0648,1.0668,1.0681,1.0672,1.0719,1.0709,1.0727,1.0726,1.0736,1.0736,1.0779,1.0745,1.0745,1.0745,1.0745,0,1.0429,1.0455,1.0475,1.0494,1.0523,1.0535,1.0564,1.0577,1.0597,1.0619,1.0625,1.0645,1.0661,1.0684,1.0695,1.0725,1.0732,1.0739,1.0742,1.0739,1.0738,1.0748,1.0746,1.0746,1.0746,1.0746,1.0746,0,1.0454,1.0468,1.0502,1.0528,1.0535,1.0555,1.0577,1.0596,1.0608,1.0636,1.0643,1.0663,1.069,1.0705,1.0739,1.0746,1.0781,1.0782,1.0773,1.0774,1.079,1.0789,1.0842,1.0849,1.0811,1.0811,1.0811,0,1.0475,1.0494,1.0522,1.0537,1.0551,1.0575,1.0591,1.0604,1.062,1.0648,1.0664,1.0691,1.0714,1.0757,1.0775,1.0801,1.0803,1.082,1.0807,1.0804,1.0804,1.0802,1.0804,1.0822,1.0822,1.0823,1.0823,0,1.051,1.0516,1.0539,1.0565,1.0584,1.0604,1.0625,1.0637,1.0654,1.0672,1.07,1.0717,1.0752,1.078,1.0807,1.0822,1.0825,1.0827,1.0832,1.0829,1.0823,1.0827,1.0779,1.0825,1.0825,1.0825,1.0825,1.0825,1.0533,1.0551,1.0574,1.0599,1.0616,1.0635,1.0654,1.0669,1.0692,1.0721,1.0728,1.0757,1.078,1.0817,1.0832,1.0856,1.0853,1.086,1.0862,1.0864,1.0865,1.0819,1.0861,1.0861,1.0861,1.0861,1.0861,0,1.0569,1.0584,1.0607,1.0635,1.0656,1.0657,1.068,1.0697,1.0722,1.0743,1.0765,1.0797,1.0824,1.0844,1.0871,1.0886,1.0889,1.0893,1.0892,1.0895,1.0866,1.0859,1.0891,1.0891,1.0891,1.0891,1.089,1.089,1.059,1.062,1.0629,1.0668,1.0683,1.0711,1.0725,1.0743,1.0759,1.0795,1.0817,1.0829,1.085,1.0879,1.0903,1.0909,1.0919,1.0923,1.0928,1.09,1.0897,1.0894,1.0887,1.0925,1.0925,1.0955,1.0956,1.0956]},{"header":{"parameterUnit":"m.s-1","parameterCategory":1,"la1":30.2991,"la2":30.254,"lo1":-89.0895,"lo2":-89.0444,"dy":0.0017,"dx":0.0017,"nx":28,"ny":28,"refTime":"2025-03-22T09:00:00:Z","depth":0,"parameterNumber":3,"parameterNumberName":"V-component_of_WINDS"},"data":[0,0,0,0,0,0,0,0,0,0,0,0,0,0,0,0,0,0,0,0,0,0,0,0,0,0,0,0,0,0,0,0,0,0,0,0,0,0,0,0,0,0,0,0,0,0,0,0,0,0,0,0,0,0,0,0,0,0,4.1486,4.1487,0,4.1631,4.1633,4.1634,4.1662,4.1661,4.1659,4.1658,4.1803,4.1807,4.1812,0,0,0,0,0,0,0,0,0,0,0,0,0,4.1228,4.1232,4.1485,4.1487,4.1489,4.1631,4.1633,4.1635,4.1662,4.166,4.1659,4.1658,4.1801,4.1807,4.1813,0,0,0,0,0,0,0,0,0,0,0,0,0,4.1353,4.1234,4.1485,4.152,4.1524,4.163,4.1633,4.1635,4.1662,4.166,4.1659,4.1657,4.1799,4.1806,4.1814,4.1894,0,0,4.1836,4.1839,0,0,0,0,0,0,0,0,4.1346,4.1362,4.1513,4.1518,4.1523,4.1627,4.1595,4.1722,4.1663,4.161,4.1658,4.1656,4.1745,4.1757,4.1788,4.19,4.1907,4.1837,4.1841,4.1844,4.1846,0,0,0,0,0,0,0,4.1337,4.1356,4.1543,4.1515,4.1521,4.1527,4.1543,4.1619,4.1685,4.1614,4.1617,4.1634,4.1747,4.1781,4.1791,4.1909,4.1837,4.1843,4.1848,4.1851,4.2097,4.2099,0,0,0,0,0,0,4.1323,4.1349,4.1538,4.1547,4.1428,4.1533,4.1551,4.1595,4.1684,4.1697,4.1635,4.1634,4.1769,4.1783,4.1797,4.1898,4.1844,4.1851,4.1855,4.2095,4.2097,4.2099,0,0,0,0,0,0,4.1317,4.1339,4.1532,4.1449,4.1474,4.1539,4.1589,4.1599,4.1632,4.17,4.1712,4.1657,4.1768,4.1786,4.187,4.1904,4.1855,4.1861,4.2092,4.2095,4.2098,4.2101,0,0,0,0,0,0,4.1309,4.1337,4.1369,4.1449,4.1478,4.1605,4.1591,4.1603,4.1645,4.1646,4.1724,4.1735,4.1768,4.1859,4.1878,4.1913,4.1867,4.2089,4.2093,4.2097,4.2098,4.2104,4.2109,0,0,0,0,0,4.13,4.1362,4.137,4.1393,4.152,4.1606,4.1623,4.1661,4.1648,4.168,4.1724,4.1733,4.1897,4.1867,4.1888,4.1927,4.2087,4.2092,4.2097,4.2096,4.2103,4.2109,0,0,0,0,0,0,4.1282,4.1374,4.1383,4.1474,4.1533,4.1611,4.1653,4.1667,4.1729,4.1727,4.177,4.1787,4.1869,4.1906,4.1872,4.201,4.1991,4.2,4.1983,4.199,4.1996,4.1986,4.1873,0,0,0,0,0,4.1289,4.1353,4.1429,4.1501,4.1531,4.1587,4.1626,4.165,4.1712,4.1736,4.1787,4.1845,4.191,4.1952,4.2015,4.2103,4.2122,4.214,4.2145,4.2149,4.2157,4.2208,4.2218,4.2115,4.2115,4.2115,0,0,4.1303,4.1361,4.1399,4.1499,4.1548,4.1613,4.1607,4.1675,4.1724,4.1746,4.183,4.1869,4.1937,4.2024,4.2065,4.2057,4.2189,4.2155,4.2158,4.2164,4.2214,4.2224,4.2233,4.2118,4.2118,4.2117,0,0,4.1363,4.1413,4.148,4.1529,4.1603,4.164,4.1656,4.1734,4.1761,4.1846,4.1865,4.1922,4.2032,4.2081,4.212,4.22,4.2211,4.2219,4.2247,4.2297,4.2305,4.2312,4.2343,4.2353,4.2226,4.2226,4.2226,0,4.1371,4.1472,4.1512,4.1581,4.1625,4.165,4.1718,4.1763,4.1853,4.1883,4.1873,4.2014,4.2061,4.2162,4.2181,4.2211,4.2231,4.2211,4.23,4.2308,4.2316,4.2346,4.2357,4.2227,4.2227,4.2227,4.2227,0,4.1479,4.1548,4.1593,4.1682,4.1731,4.1799,4.1849,4.1894,4.1914,4.1952,4.2038,4.2096,4.2173,4.2198,4.2217,4.2301,4.2295,4.2292,4.2274,4.2326,4.2355,4.2366,4.2228,4.2228,4.2227,4.2227,0,0,4.1531,4.1644,4.166,4.1702,4.1786,4.184,4.1909,4.1986,4.2024,4.2085,4.2144,4.2238,4.2237,4.2282,4.2306,4.235,4.2412,4.2342,4.2345,4.2355,4.251,4.2513,4.2526,4.2419,4.2421,4.2423,4.2505,0,4.1603,4.173,4.1769,4.1874,4.1939,4.1964,4.2025,4.2082,4.212,4.218,4.222,4.2287,4.2279,4.2307,4.2351,4.2395,4.2444,4.2389,4.2475,4.2478,4.246,4.254,4.2543,4.2618,4.2517,4.2518,4.252,0,4.1703,4.177,4.1882,4.1961,4.1989,4.2043,4.2118,4.2175,4.2241,4.2265,4.2315,4.2337,4.241,4.2387,4.2489,4.2451,4.2488,4.2515,4.2519,4.253,4.2503,4.2555,4.2643,4.2655,4.2537,4.2536,4.2535,0,4.1733,4.185,4.1933,4.1968,4.206,4.2098,4.2138,4.2203,4.2247,4.2311,4.2341,4.2412,4.2451,4.2506,4.2546,4.2525,4.2645,4.2625,4.2667,4.2666,4.2693,4.2691,4.2789,4.2713,4.2713,4.2713,4.2712,0,4.181,4.1879,4.1949,4.2,4.2078,4.2121,4.2197,4.2237,4.2295,4.2354,4.2379,4.2434,4.2483,4.2544,4.2576,4.2656,4.2673,4.2695,4.2703,4.2694,4.2692,4.272,4.2717,4.2716,4.2715,4.2714,4.2714,0,4.1857,4.1907,4.2,4.2081,4.2103,4.2156,4.2225,4.2276,4.2314,4.2389,4.2409,4.2469,4.2543,4.2589,4.2681,4.2703,4.2792,4.2796,4.277,4.2775,4.2816,4.2812,4.2938,4.2957,4.2866,4.2866,4.2867,0,4.1904,4.1958,4.2046,4.2088,4.213,4.2197,4.2244,4.2289,4.2336,4.2416,4.2457,4.2533,4.2596,4.2713,4.2764,4.2835,4.2843,4.2883,4.2854,4.2845,4.2847,4.2844,4.285,4.2888,4.2888,4.2889,4.289,0,4.1983,4.2005,4.2072,4.2148,4.2204,4.2265,4.2326,4.2359,4.2414,4.2466,4.2543,4.2592,4.2688,4.2763,4.284,4.288,4.2895,4.2898,4.2912,4.2905,4.2888,4.29,4.2786,4.2895,4.2895,4.2894,4.2894,4.2894,4.2033,4.2083,4.2153,4.2227,4.2279,4.2336,4.2388,4.2435,4.25,4.2584,4.2605,4.2687,4.2752,4.2857,4.2898,4.2962,4.2956,4.2976,4.2981,4.2986,4.2989,4.2877,4.2976,4.2975,4.2975,4.2975,4.2975,0,4.2115,4.2162,4.223,4.2316,4.2375,4.2385,4.2453,4.2501,4.2573,4.2634,4.2696,4.2786,4.2859,4.2917,4.2992,4.3032,4.3041,4.3051,4.3049,4.3059,4.2988,4.297,4.3043,4.3043,4.3043,4.3043,4.3043,4.3043,4.2164,4.2251,4.2281,4.2393,4.2439,4.2521,4.256,4.2612,4.2662,4.2761,4.2823,4.2861,4.2921,4.3001,4.3069,4.3084,4.3112,4.3121,4.3137,4.3071,4.3063,4.3056,4.3039,4.3126,4.3126,4.3203,4.3204,4.3204]}]]